User: anonymous
Location: Unspecified
(0.0000°N, 0.0000°E)
Time: 07:22:28
(UTC+02:00)
Language:

Cosmos 1092 Rocket - Orbit

View from above orbital plane
View from above orbital plane
View from above satellite
View from above satellite

Ground track
Ground track

The orbit data is extracted from the following two-line orbital elements,

1 11327U 79030B   14292.49741170  .00000093  00000-0  79129-4 0  8638
2 11327 082.9468 297.3399 0027852 022.9528 141.8541 13.76945860785415
Epoch (UTC): 19 October 2014 11:56:16
Eccentricity: 0.0027852
inclination: 82.9468°
perigee height: 954 km
apogee height: 995 km
right ascension of ascending node: 297.3399°
argument of perigee: 22.9528°
revolutions per day: 13.76945860
mean anomaly at epoch: 141.8541°
orbit number at epoch: 78541

The dashed part of the orbit path shows where the satellite is in the earth's shadow,  

DLR